This demonstration page uses our WeatherBlox Daily Observations layout. Learn more.

Hourly Observations for June 27, 2015

Temp ( °F °C ) Dew Point ( °F °C ) Humidity (%) Winds ( mph kmh ) Pressure ( in mb ) Visibility ( mi km ) Precip ( " mm )
12:15 am 00:15 Clear 62 16.5 57 13.7 84 84 Calm 30.09 1019 10 16.0934 0 0
12:35 am 00:35 Clear 62 16.7 57 14 84 84 Calm 30.09 1019 10 16.0934 0 0
12:55 am 00:55 Clear 61 16.2 56 13.6 85 85 Calm 30.09 1019 10 16.0934 0 0
1:15 am 01:15 Clear 60 15.6 56 13.5 87 87 Calm 30.12 1020 10 16.0934 0 0
1:35 am 01:35 Clear 60 15.3 56 13.3 88 88 Calm 30.12 1020 10 16.0934 0 0
1:55 am 01:55 Clear 59 15 55 13 88 88 Calm 30.12 1020 10 16.0934 0 0
2:15 am 02:15 Clear 59 14.8 56 13.1 90 90 Calm 30.09 1019 10 16.0934 0 0
2:35 am 02:35 Clear 58 14.3 55 12.6 90 90 Calm 30.09 1019 10 16.0934 0 0
2:55 am 02:55 Clear 58 14.5 55 12.9 90 90 Calm 30.09 1019 10 16.0934 0 0
3:15 am 03:15 Clear 58 14.5 56 13.1 91 91 Calm 30.09 1019 10 16.0934 0 0
3:35 am 03:35 Clear 58 14.6 55 12.9 90 90 Calm 30.12 1020 10 16.0934 0 0
3:55 am 03:55 Clear 57 14.1 55 12.7 91 91 Calm 30.09 1019 10 16.0934 0 0
4:15 am 04:15 Clear 57 14 55 12.6 91 91 Calm 30.09 1019 10 16.0934 0 0
4:35 am 04:35 Clear 56 13.6 54 12.4 93 93 Calm 30.09 1019 10 16.0934 0 0
4:55 am 04:55 Clear 57 13.8 55 12.5 92 92 Calm 30.09 1019 10 16.0934 0 0
5:15 am 05:15 Clear 57 13.9 55 12.5 91 91 W 5 7 30.09 1019 10 16.0934 0 0
5:35 am 05:35 Clear 58 14.2 55 12.7 91 91 Calm 30.12 1020 10 16.0934 0 0
5:55 am 05:55 Clear 56 13.6 54 12.2 91 91 Calm 30.12 1020 7 11.26538 0 0
6:15 am 06:15 Sunny 56 13.4 54 12.1 92 92 Calm 30.15 1021 7 11.26538 0 0
6:35 am 06:35 Sunny 57 14.1 55 12.6 91 91 Calm 30.12 1020 10 16.0934 0 0
6:55 am 06:55 Sunny 58 14.6 55 12.9 90 90 Calm 30.12 1020 10 16.0934 0 0
7:15 am 07:15 Sunny 60 15.7 56 13.5 87 87 W 3 6 30.12 1020 10 16.0934 0 0
7:35 am 07:35 Sunny 63 17 58 14.4 85 85 Calm 30.12 1020 10 16.0934 0 0
7:55 am 07:55 Sunny 64 17.8 58 14.5 81 81 Calm 30.09 1019 10 16.0934 0 0
8:15 am 08:15 Sunny 66 18.8 59 15.1 79 79 WNW 3 6 30.09 1019 10 16.0934 0 0
8:35 am 08:35 Sunny 69 20.5 60 15.5 73 73 W 6 9 30.06 1018 10 16.0934 0 0
8:55 am 08:55 Sunny 71 21.7 60 15.5 68 68 W 5 7 30.06 1018 10 16.0934 0 0
9:15 am 09:15 Sunny 73 22.6 60 15.4 64 64 W 7 11 30.06 1018 10 16.0934 0 0
9:35 am 09:35 Sunny 74 23.4 59 14.9 59 59 W 6 9 30.06 1018 10 16.0934 0 0
9:55 am 09:55 Sunny 75 24 58 14.6 56 56 W 7 11 30.06 1018 10 16.0934 0 0
10:15 am 10:15 Sunny 76 24.3 58 14.2 53 53 W 5 7 30.06 1018 10 16.0934 0 0
10:35 am 10:35 Sunny 76 24.6 59 14.9 55 55 W 6 9 30.03 1017 10 16.0934 0 0
10:55 am 10:55 Sunny 77 25 58 14.6 53 53 W 5 7 30.03 1017 10 16.0934 0 0
11:15 am 11:15 Sunny 78 25.6 55 12.7 45 45 W 3 6 30.03 1017 10 16.0934 0 0
11:35 am 11:35 Partly Cloudy 78 25.4 56 13.2 47 47 WSW 5 7 30.03 1017 10 16.0934 0 0
11:55 am 11:55 Partly Cloudy 78 25.4 56 13.4 47 47 W 7 11 30.03 1017 10 16.0934 0 0
12:15 pm 12:15 Partly Cloudy 79 26.3 55 12.9 44 44 NW 5 7 30.03 1017 10 16.0934 0 0
12:35 pm 12:35 Sunny 81 27 55 13 42 42 WNW 6 9 30 1016 10 16.0934 0 0
12:55 pm 12:55 Partly Cloudy 80 26.5 55 12.6 42 42 WNW 7 11 30 1016 10 16.0934 0 0
1:15 pm 13:15 Mostly Cloudy 78 25.8 53 11.9 42 42 NNW 5 7 30 1016 10 16.0934 0 0
1:35 pm 13:35 Partly Cloudy 81 27.2 53 11.7 38 38 NNE 3 6 30 1016 10 16.0934 0 0
1:55 pm 13:55 Mostly Cloudy 80 26.7 53 11.5 39 39 W 6 9 30 1016 10 16.0934 0 0
2:15 pm 14:15 Partly Cloudy 82 27.6 54 12 38 38 Calm 30 1016 10 16.0934 0 0
2:35 pm 14:35 Sunny 83 28.1 52 11.3 35 35 Calm 30 1016 10 16.0934 0 0
2:55 pm 14:55 Sunny 82 27.5 51 10.8 35 35 Calm 30 1016 10 16.0934 0 0
3:15 pm 15:15 Partly Cloudy 82 28 51 10.3 33 33 Calm 30 1016 10 16.0934 0 0
3:35 pm 15:35 Sunny 83 28.4 51 10.8 33 33 NW 7 11 30 1016 10 16.0934 0 0
3:55 pm 15:55 Partly Cloudy 83 28.4 51 10.6 33 33 N 6 9 30 1016 10 16.0934 0 0
4:15 pm 16:15 Partly Cloudy 83 28.5 52 11.2 34 34 WSW 6 9 29.97 1015 10 16.0934 0 0
4:35 pm 16:35 Partly Cloudy 82 27.7 51 10.8 35 35 Calm 29.94 1014 10 16.0934 0 0
4:55 pm 16:55 Mostly Cloudy 84 28.7 52 11.1 34 34 W 7 11 29.94 1014 10 16.0934 0 0
5:15 pm 17:15 Partly Cloudy 83 28.2 49 9.5 31 31 Calm 29.94 1014 10 16.0934 0 0
5:35 pm 17:35 Sunny 83 28.6 51 10.3 32 32 Calm 29.94 1014 10 16.0934 0 0
5:55 pm 17:55 Sunny 84 28.7 50 10 31 31 N 6 9 29.91 1013 10 16.0934 0 0
6:15 pm 18:15 Sunny 84 28.9 50 10.1 31 31 NW 6 9 29.91 1013 10 16.0934 0 0
6:35 pm 18:35 Sunny 84 28.7 51 10.3 32 32 NW 5 7 29.91 1013 10 16.0934 0 0
6:55 pm 18:55 Sunny 83 28.5 50 9.9 31 31 Calm 29.91 1013 10 16.0934 0 0
7:15 pm 19:15 Sunny 83 28.6 51 10.3 32 32 Calm 29.91 1013 10 16.0934 0 0
7:35 pm 19:35 Sunny 83 28.2 50 9.9 32 32 Calm 29.91 1013 10 16.0934 0 0
7:55 pm 19:55 Sunny 82 28 51 10.4 33 33 Calm 29.88 1012 10 16.0934 0 0
8:15 pm 20:15 Sunny 81 27.3 58 14.3 45 45 SSE 3 6 29.91 1013 10 16.0934 0 0
8:35 pm 20:35 Sunny 80 26.6 57 14 46 46 Calm 29.91 1013 10 16.0934 0 0
8:55 pm 20:55 Sunny 79 25.9 58 14.6 50 50 SSE 3 6 29.91 1013 10 16.0934 0 0
9:15 pm 21:15 Clear 74 23.5 61 16 63 63 SSE 3 6 29.91 1013 10 16.0934 0 0
9:35 pm 21:35 Clear 75 24 61 15.9 61 61 S 5 7 29.91 1013 10 16.0934 0 0
9:55 pm 21:55 Clear 73 22.7 59 15 62 62 S 5 7 29.94 1014 10 16.0934 0 0
10:15 pm 22:15 Clear 73 22.5 58 14.2 60 60 S 3 6 29.94 1014 10 16.0934 0 0
10:35 pm 22:35 Clear 72 22.2 57 14.1 60 60 Calm 29.94 1014 10 16.0934 0 0
10:55 pm 22:55 Clear 71 21.8 57 14.1 62 62 Calm 29.97 1015 10 16.0934 0 0
11:15 pm 23:15 Clear 71 21.5 57 13.8 62 62 Calm 29.97 1015 10 16.0934 0 0
11:35 pm 23:35 Clear 70 21 56 13.6 63 63 S 3 6 29.97 1015 10 16.0934 0 0
11:55 pm 23:55 Clear 68 19.8 57 14 69 69 Calm 30 1016 10 16.0934 0 0

Powered by AerisWeather